FDX528 GCFV-GOBD

Flight info

Callsign FDX528
Flight time N/A
Altitude 36000
Route LORPO DCT GDV M660 ROTUM/N0462F380 M660 DKH L660 MAURI DCT PE UB600 LIMAX LIMAX1A
Aircraft B738/M-SDE2E3FGHIRWXY/LB1

Departure

Time 2026-05-08 01:39
Airport Fuerteventura Airport (GCFV)

Arrival

Time N/A
Airport Blaise Diagne International Airport (GOBD)
Time Latitude Longitude Altitude Speed Heading
2026-05-08 01:11 28.44417 -13.86861 69 ft 0 kts 268°
2026-05-08 01:29 28.44417 -13.86851 69 ft 4 kts 265°
2026-05-08 01:30 28.44422 -13.86821 63 ft 4 kts 257°
2026-05-08 01:30 28.44426 -13.86795 61 ft 4 kts 256°
2026-05-08 01:30 28.44437 -13.86770 64 ft 4 kts 210°
2026-05-08 01:30 28.44460 -13.86763 67 ft 2 kts 182°
2026-05-08 01:31 28.44464 -13.86763 67 ft 1 kts 182°
2026-05-08 01:32 28.44456 -13.86763 66 ft 4 kts 181°
2026-05-08 01:33 28.44407 -13.86765 66 ft 11 kts 182°
2026-05-08 01:33 28.44311 -13.86769 67 ft 17 kts 182°
2026-05-08 01:33 28.44181 -13.86774 62 ft 20 kts 181°
2026-05-08 01:33 28.44085 -13.86769 63 ft 9 kts 155°
2026-05-08 01:34 28.44059 -13.86703 59 ft 10 kts 94°
2026-05-08 01:34 28.44034 -13.86622 60 ft 13 kts 147°
2026-05-08 01:34 28.43934 -13.86613 58 ft 16 kts 180°
2026-05-08 01:34 28.43810 -13.86616 59 ft 19 kts 182°
2026-05-08 01:35 28.43668 -13.86622 51 ft 22 kts 181°
2026-05-08 01:35 28.43517 -13.86627 54 ft 21 kts 181°
2026-05-08 01:35 28.43372 -13.86632 50 ft 15 kts 181°
2026-05-08 01:35 28.43277 -13.86629 51 ft 12 kts 162°
2026-05-08 01:36 28.43248 -13.86569 49 ft 3 kts 94°
2026-05-08 01:36 28.43248 -13.86565 51 ft 0 kts 92°
2026-05-08 01:37 28.43248 -13.86559 51 ft 2 kts 92°
2026-05-08 01:38 28.43251 -13.86519 50 ft 8 kts 73°
2026-05-08 01:38 28.43296 -13.86454 53 ft 13 kts 39°
2026-05-08 01:38 28.43334 -13.86440 52 ft 0 kts
2026-05-08 01:38 28.43338 -13.86440 48 ft 7 kts
2026-05-08 01:39 28.43637 -13.86429 56 ft 78 kts
2026-05-08 01:39 28.44400 -13.86403 61 ft 138 kts
2026-05-08 01:39 28.45495 -13.86354 294 ft 168 kts
2026-05-08 01:39 28.46646 -13.86303 1048 ft 165 kts
2026-05-08 01:40 28.47801 -13.86174 1722 ft 169 kts 18°
2026-05-08 01:40 28.48711 -13.85319 2227 ft 189 kts 60°
2026-05-08 01:40 28.49310 -13.83895 2616 ft 211 kts 57°
2026-05-08 01:40 28.50358 -13.82640 2816 ft 231 kts 28°
2026-05-08 01:41 28.51881 -13.81916 3154 ft 249 kts 18°
2026-05-08 01:41 28.53550 -13.81165 3709 ft 260 kts 21°
2026-05-08 01:41 28.55212 -13.80334 4608 ft 262 kts 22°
2026-05-08 01:41 28.56874 -13.79463 5429 ft 264 kts 20°
2026-05-08 01:42 28.58653 -13.79008 6186 ft 264 kts 356°
2026-05-08 01:42 28.60427 -13.79506 6935 ft 264 kts 332°
2026-05-08 01:42 28.61850 -13.80784 7641 ft 267 kts 308°
2026-05-08 01:42 28.62728 -13.82648 8374 ft 271 kts 287°
2026-05-08 01:43 28.63091 -13.84763 9123 ft 275 kts 275°
2026-05-08 01:43 28.63073 -13.86964 9870 ft 280 kts 267°
2026-05-08 01:43 28.62877 -13.89201 10412 ft 291 kts 263°
2026-05-08 01:43 28.62510 -13.91561 10574 ft 315 kts 258°
2026-05-08 01:44 28.61880 -13.94044 10744 ft 337 kts 252°
2026-05-08 01:44 28.60945 -13.96577 10907 ft 357 kts 245°
2026-05-08 01:44 28.59707 -13.99034 11282 ft 368 kts 238°
2026-05-08 01:44 28.58157 -14.01374 11884 ft 372 kts 231°
2026-05-08 01:45 28.56340 -14.03482 12567 ft 374 kts 223°
2026-05-08 01:45 28.54279 -14.05313 13242 ft 378 kts 216°
2026-05-08 01:45 28.51998 -14.06832 13884 ft 382 kts 208°
2026-05-08 01:45 28.49528 -14.08002 14526 ft 384 kts 201°
2026-05-08 01:46 28.46939 -14.08799 15204 ft 387 kts 195°
2026-05-08 01:46 28.44264 -14.09294 15810 ft 390 kts 196°
2026-05-08 01:46 28.41822 -14.10517 16334 ft 383 kts 221°
2026-05-08 01:46 28.40138 -14.12756 16985 ft 377 kts 244°
2026-05-08 01:47 28.39457 -14.15594 17663 ft 376 kts 267°
2026-05-08 01:47 28.39837 -14.18538 18313 ft 379 kts 282°
2026-05-08 01:47 28.40441 -14.21464 18799 ft 380 kts 277°
2026-05-08 01:48 28.39995 -14.27372 19691 ft 384 kts 246°
2026-05-08 01:48 28.38766 -14.30069 20230 ft 385 kts 243°
2026-05-08 01:48 28.37479 -14.32707 20683 ft 387 kts 243°
2026-05-08 01:48 28.36146 -14.35393 21115 ft 390 kts 243°
2026-05-08 01:49 28.34811 -14.38089 21560 ft 392 kts 243°
2026-05-08 01:49 28.33480 -14.40794 22014 ft 393 kts 243°
2026-05-08 01:49 28.32149 -14.43519 22448 ft 395 kts 243°
2026-05-08 01:49 28.30832 -14.46224 22841 ft 397 kts 243°
2026-05-08 01:50 28.29495 -14.48975 23229 ft 399 kts 243°
2026-05-08 01:50 28.28150 -14.51742 23624 ft 400 kts 244°
2026-05-08 01:50 28.26802 -14.54516 23950 ft 402 kts 244°
2026-05-08 01:50 28.25451 -14.57294 24278 ft 403 kts 244°
2026-05-08 01:51 28.24090 -14.60091 24578 ft 405 kts 244°
2026-05-08 01:51 28.22723 -14.62894 24879 ft 407 kts 244°
2026-05-08 01:51 28.21487 -14.65776 25177 ft 406 kts 252°
2026-05-08 01:51 28.20872 -14.68888 25492 ft 405 kts 261°
2026-05-08 01:52 28.20378 -14.71999 25808 ft 406 kts 259°
2026-05-08 01:52 28.19844 -14.75152 26100 ft 408 kts 259°
2026-05-08 01:52 28.19293 -14.78310 26381 ft 409 kts 259°
2026-05-08 01:52 28.18730 -14.81487 26663 ft 410 kts 259°
2026-05-08 01:53 28.18165 -14.84663 26944 ft 411 kts 259°
2026-05-08 01:53 28.17597 -14.87848 27226 ft 413 kts 259°
2026-05-08 01:53 28.17028 -14.91044 27495 ft 414 kts 259°
2026-05-08 01:53 28.16463 -14.94213 27732 ft 415 kts 259°
2026-05-08 01:54 28.15888 -14.97434 27967 ft 417 kts 259°
2026-05-08 01:54 28.15314 -15.00649 28329 ft 416 kts 259°
2026-05-08 01:54 28.14742 -15.03851 28783 ft 412 kts 259°
2026-05-08 01:54 28.14365 -15.05959 29087 ft 410 kts 259°
2026-05-08 01:55 28.13606 -15.10191 29668 ft 408 kts 259°
2026-05-08 01:55 28.13233 -15.12273 29931 ft 407 kts 259°
2026-05-08 01:55 28.12668 -15.15420 30297 ft 406 kts 259°
2026-05-08 01:55 28.11923 -15.19560 30750 ft 404 kts 259°
2026-05-08 01:56 28.11544 -15.21662 30963 ft 404 kts 259°
2026-05-08 01:56 28.10982 -15.24784 31294 ft 403 kts 259°
2026-05-08 01:56 28.10421 -15.27890 31636 ft 402 kts 259°
2026-05-08 01:56 28.09861 -15.30988 31962 ft 401 kts 259°
2026-05-08 01:57 28.09292 -15.34076 32281 ft 400 kts 257°
2026-05-08 01:57 28.08265 -15.36963 32552 ft 405 kts 242°
2026-05-08 01:57 28.06547 -15.39519 32769 ft 412 kts 230°
2026-05-08 01:57 28.04325 -15.41634 32999 ft 422 kts 220°
2026-05-08 01:58 28.01727 -15.43243 33307 ft 431 kts 208°
2026-05-08 01:58 27.98775 -15.44111 33616 ft 444 kts 196°
2026-05-08 01:58 27.95701 -15.44541 33915 ft 446 kts 194°
2026-05-08 01:58 27.92596 -15.44883 34118 ft 448 kts 193°
2026-05-08 01:59 27.89485 -15.45197 34315 ft 449 kts 193°
2026-05-08 01:59 27.86418 -15.45508 34562 ft 448 kts 193°
2026-05-08 01:59 27.83314 -15.45837 34797 ft 447 kts 193°
2026-05-08 01:59 27.80209 -15.46182 34989 ft 448 kts 194°
2026-05-08 02:00 27.77105 -15.46539 35162 ft 448 kts 194°
2026-05-08 02:00 27.73993 -15.46904 35378 ft 448 kts 193°
2026-05-08 02:00 27.70888 -15.47272 35594 ft 448 kts 194°
2026-05-08 02:00 27.67786 -15.47642 35791 ft 449 kts 194°
2026-05-08 02:01 27.64676 -15.48012 35994 ft 449 kts 194°
2026-05-08 02:01 27.61569 -15.48382 36203 ft 449 kts 194°
2026-05-08 02:01 27.58494 -15.48747 36406 ft 449 kts 194°
2026-05-08 02:01 27.55348 -15.49121 36602 ft 449 kts 194°
2026-05-08 02:02 27.52234 -15.49490 36803 ft 450 kts 194°
2026-05-08 02:02 27.49163 -15.49854 36997 ft 450 kts 194°
2026-05-08 02:02 27.46045 -15.50222 37137 ft 450 kts 193°
2026-05-08 02:02 27.42927 -15.50591 37313 ft 451 kts 193°
2026-05-08 02:03 27.39803 -15.50960 37516 ft 451 kts 193°
2026-05-08 02:03 27.36682 -15.51329 37696 ft 451 kts 193°
2026-05-08 02:03 27.33553 -15.51698 37870 ft 451 kts 193°
2026-05-08 02:03 27.30425 -15.52067 38011 ft 452 kts 193°
2026-05-08 02:04 27.24139 -15.52809 38017 ft 453 kts 193°
2026-05-08 02:04 27.17921 -15.53538 37985 ft 450 kts 193°
2026-05-08 02:05 27.11720 -15.54265 38010 ft 447 kts 193°
2026-05-08 02:05 27.05539 -15.54991 38019 ft 445 kts 193°
2026-05-08 02:06 26.99372 -15.55717 38022 ft 446 kts 193°
2026-05-08 02:06 26.93196 -15.56442 38027 ft 447 kts 193°
2026-05-08 02:07 26.86997 -15.57170 38029 ft 449 kts 193°
2026-05-08 02:07 26.80804 -15.57894 38028 ft 451 kts 193°
2026-05-08 02:08 26.74545 -15.58626 38027 ft 453 kts 193°
2026-05-08 02:08 26.68265 -15.59358 38025 ft 455 kts 193°
2026-05-08 02:09 26.61958 -15.60093 38025 ft 456 kts 193°
2026-05-08 02:09 26.55651 -15.60826 38019 ft 455 kts 193°
2026-05-08 02:10 26.49364 -15.61557 38023 ft 456 kts 193°
2026-05-08 02:10 26.43050 -15.62290 38025 ft 456 kts 193°
2026-05-08 02:11 26.36741 -15.63022 38025 ft 455 kts 193°
2026-05-08 02:11 26.30469 -15.63749 38013 ft 455 kts 193°
2026-05-08 02:12 26.24155 -15.64480 38010 ft 454 kts 193°
2026-05-08 02:12 26.17862 -15.65208 38027 ft 454 kts 193°
2026-05-08 02:13 26.11605 -15.65932 38021 ft 455 kts 193°
2026-05-08 02:13 26.05298 -15.66660 38024 ft 455 kts 193°
2026-05-08 02:14 25.98975 -15.67389 37987 ft 456 kts 193°
2026-05-08 02:14 25.92689 -15.68113 38009 ft 456 kts 193°
2026-05-08 02:15 25.86363 -15.68841 38020 ft 457 kts 193°
2026-05-08 02:15 25.80021 -15.69570 38016 ft 458 kts 193°
2026-05-08 02:16 25.73717 -15.70293 38017 ft 458 kts 193°
2026-05-08 02:16 25.67357 -15.71023 38012 ft 458 kts 193°
2026-05-08 02:17 25.61005 -15.71750 38010 ft 459 kts 193°
2026-05-08 02:17 25.54650 -15.72477 38017 ft 459 kts 193°
2026-05-08 02:18 25.48326 -15.73200 38017 ft 459 kts 193°
2026-05-08 02:18 25.41972 -15.73925 38018 ft 459 kts 193°
2026-05-08 02:19 25.35611 -15.74651 38011 ft 458 kts 192°
2026-05-08 02:19 25.29266 -15.75374 38010 ft 458 kts 192°
2026-05-08 02:20 25.22925 -15.76096 38012 ft 458 kts 192°
2026-05-08 02:20 25.16589 -15.76816 38011 ft 458 kts 192°
2026-05-08 02:21 25.10287 -15.77532 38011 ft 458 kts 192°
2026-05-08 02:21 25.03938 -15.78253 38005 ft 457 kts 192°
2026-05-08 02:22 24.97602 -15.78966 38012 ft 458 kts 192°
2026-05-08 02:22 24.91297 -15.79640 38012 ft 458 kts 192°
2026-05-08 02:23 24.84938 -15.80313 38005 ft 458 kts 192°